CORIOLIS

Last updated on Fri Sep 11 2026 00:03:31 GMT+0000 (Coordinated Universal Time)

1 27640U 03001A 26253.52962974 .00000080 00000+0 58107-4 0 9997 2 27640 98.7167 259.1260 0013453 331.5684 28.4758 14.19965418226338
UTC large
Height (km)
Speed (km/s)
/
Latitude / Longitude
Inclination (degrees)
Orbital Period (minutes)
Azimuth
Elevation
Range (km)
Doppler Factor

Next 0 passes for location: London (51.5072 / 0.1276)

No passes found over London.
CORIOLIS